CW1020 Weather Reports


Display with metric or nautical units.
time (UTC)temp
F
wind
direction
speed
MPH
gust
MPH
rain 1hr
in
rain 24hr
in
rain mn
in
humidity
%
barometer
mb
20260506051003 46 217 5.0 9.0 0.00 0.02 0.02 82 1018.0
20260506050503 46 235 5.0 11.0 0.00 0.02 0.02 82 1018.0
20260506045003 46 226 5.0 11.0 0.00 0.02 0.02 82 1017.9
20260506044503 46 245 5.0 9.0 0.00 0.02 0.02 82 1017.9
20260506044003 46 227 5.0 10.0 0.00 0.02 0.02 83 1017.8
20260506043503 46 238 5.0 9.0 0.00 0.02 0.02 83 1017.8
20260506043003 46 232 5.0 8.0 0.00 0.02 0.02 83 1017.8
20260506042503 46 220 4.0 10.0 0.00 0.02 0.02 83 1017.7
20260506042003 46 222 3.0 7.0 0.00 0.02 0.02 83 1017.6
20260506041503 46 246 4.0 7.0 0.00 0.02 0.02 83 1017.5
20260506041003 46 242 4.0 9.0 0.00 0.02 0.02 83 1017.5
20260506040503 46 225 4.0 7.0 0.00 0.02 0.02 83 1017.4
20260506040003 46 236 4.0 8.0 0.00 0.02 0.02 82 1017.4
20260506035503 46 254 4.0 7.0 0.00 0.02 0.02 81 1017.4
20260506034503 47 221 5.0 9.0 0.00 0.02 0.02 82 1017.3
20260506034003 47 238 5.0 9.0 0.00 0.02 0.02 81 1017.2
20260506033503 47 223 5.0 7.0 0.00 0.02 0.02 81 1017.2
20260506033004 47 248 4.0 9.0 0.00 0.02 0.02 81 1017.1
20260506032503 47 227 3.0 8.0 0.00 0.02 0.02 80 1017.1
20260506032003 47 247 3.0 7.0 0.00 0.02 0.02 78 1017.1
20260506031503 47 236 4.0 5.0 0.00 0.02 0.02 76 1016.9
20260506031003 47 254 6.0 5.0 0.00 0.02 0.02 75 1016.8
20260506030503 48 263 6.0 9.0 0.00 0.02 0.02 75 1016.7
20260506025503 48 270 8.0 10.0 0.00 0.02 0.02 74 1016.6
20260506023504 48 256 7.0 11.0 0.00 0.02 0.02 76 1016.4
20260506023003 48 262 8.0 11.0 0.00 0.02 0.02 76 1016.3
20260506022503 48 273 8.0 13.0 0.00 0.02 0.02 76 1016.3
20260506022003 48 259 7.0 17.0 0.00 0.02 0.02 77 1016.2
20260506021503 48 259 6.0 11.0 0.00 0.02 0.02 77 1016.3
20260506020503 48 274 6.0 12.0 0.00 0.02 0.02 77 1016.1
20260506015503 48 276 7.0 9.0 0.00 0.02 0.02 78 1015.9
20260506015005 48 303 7.0 9.0 0.00 0.02 0.02 78 1016.0
20260506014503 49 310 5.0 17.0 0.00 0.02 0.02 78 1015.9
20260506014004 49 302 5.0 11.0 0.00 0.02 0.02 78 1015.9
20260506013503 49 312 6.0 8.0 0.00 0.02 0.02 78 1015.8
20260506013003 49 283 8.0 9.0 0.00 0.02 0.02 77 1015.8
20260506012503 49 273 11.0 8.0 0.00 0.02 0.02 77 1015.7
20260506012003 49 268 11.0 17.0 0.00 0.02 0.02 77 1015.6
20260506010504 49 272 9.0 15.0 0.00 0.02 0.02 77 1015.5
20260506010003 49 277 9.0 16.0 0.00 0.02 0.02 78 1015.6
20260506005503 49 259 8.0 12.0 0.00 0.02 0.02 78 1015.7
20260506005003 49 275 6.0 11.0 0.00 0.02 0.02 79 1015.7
20260506004504 49 268 5.0 11.0 0.00 0.02 0.02 81 1015.7
20260506004003 48 274 4.0 8.0 0.00 0.02 0.02 82 1015.7
20260506003003 48 292 6.0 9.0 0.00 0.02 0.02 82 1015.6
20260506002003 48 287 7.0 13.0 0.00 0.02 0.02 83 1015.5
20260506001503 47 288 6.0 9.0 0.00 0.02 0.02 84 1015.4
20260506001003 47 287 6.0 10.0 0.00 0.02 0.02 84 1015.3
20260506000504 47 294 6.0 7.0 0.00 0.02 0.02 84 1015.3
20260506000003 48 301 6.0 10.0 0.00 0.02 0.02 83 1015.4
20260505235004 48 293 5.0 8.0 0.00 0.02 0.02 82 1015.4
20260505234504 48 273 5.0 8.0 0.00 0.02 0.02 82 1015.4
20260505234003 48 307 4.0 10.0 0.00 0.02 0.02 82 1015.4
20260505233503 48 294 5.0 7.0 0.00 0.02 0.02 83 1015.5
20260505233004 48 276 8.0 7.0 0.00 0.02 0.02 83 1015.5
20260505232503 48 285 8.0 12.0 0.00 0.02 0.02 83 1015.5
20260505232003 48 296 8.0 13.0 0.00 0.02 0.02 83 1015.5
20260505231503 48 286 6.0 15.0 0.00 0.02 0.02 81 1015.6
20260505230503 49 289 4.0 9.0 0.00 0.02 0.02 80 1015.5
20260505230004 48 282 4.0 9.0 0.00 0.02 0.02 81 1015.5
20260505225503 48 304 5.0 8.0 0.00 0.02 0.02 81 1015.5
20260505225004 48 304 6.0 6.0 0.00 0.02 0.02 81 1015.6
20260505224503 47 284 5.0 9.0 0.00 0.02 0.02 87 1015.5
20260505223503 47 304 7.0 4.0 0.00 0.02 0.02 86 1015.8
20260505222504 47 307 3.0 13.0 0.00 0.02 0.02 87 1015.8
20260505222003 47 293 3.0 6.0 0.00 0.02 0.02 87 1015.7
20260505221504 47 310 4.0 4.0 0.00 0.02 0.02 87 1015.8
20260505221004 47 306 4.0 7.0 0.00 0.02 0.02 87 1015.8
20260505220503 47 307 5.0 11.0 0.00 0.02 0.02 86 1015.7
20260505220004 47 299 5.0 11.0 0.00 0.02 0.02 87 1015.8
20260505215503 47 297 3.0 10.0 0.00 0.02 0.02 87 1015.8
20260505215003 47 290 3.0 8.0 0.00 0.02 0.02 87 1015.8
20260505214503 47 293 3.0 4.0 0.00 0.02 0.02 88 1015.8
20260505214004 47 294 3.0 7.0 0.00 0.02 0.02 88 1015.9
20260505213503 47 315 3.0 5.0 0.00 0.02 0.02 88 1015.9
20260505213004 46 281 3.0 8.0 0.00 0.02 0.02 89 1016.0
20260505212502 46 302 4.0 3.0 0.00 0.02 0.02 89 1015.9
20260505212002 46 289 4.0 6.0 0.00 0.02 0.02 89 1016.0
20260505211502 46 321 5.0 8.0 0.00 0.02 0.02 89 1016.0
20260505210502 46 314 6.0 8.0 0.00 0.02 0.02 89 1016.0
20260505210003 46 288 5.0 10.0 0.00 0.02 0.02 88 1016.0
20260505205502 46 287 5.0 11.0 0.00 0.02 0.02 89 1015.9
20260505204502 46 295 6.0 9.0 0.00 0.02 0.02 89 1015.9
20260505204002 47 312 5.0 11.0 0.00 0.02 0.02 89 1015.9
20260505203503 47 312 5.0 10.0 0.00 0.02 0.02 88 1015.9
20260505202502 46 310 2.0 7.0 0.00 0.02 0.02 88 1015.8
20260505201002 46 257 6.0 8.0 0.00 0.02 0.02 87 1015.9
20260505200502 47 254 6.0 12.0 0.00 0.02 0.02 87 1015.8
20260505195503 47 251 7.0 13.0 0.00 0.02 0.02 88 1015.8
20260505195002 47 281 6.0 13.0 0.00 0.02 0.02 88 1015.8
20260505194502 46 278 6.0 6.0 0.00 0.02 0.02 90 1015.9
20260505194002 46 309 6.0 14.0 0.00 0.02 0.02 90 1015.9
20260505193503 46 317 3.0 15.0 0.00 0.02 0.02 91 1015.9
20260505193002 46 318 2.0 10.0 0.00 0.02 0.02 91 1016.0
20260505192502 46 295 2.0 8.0 0.00 0.02 0.02 91 1015.9
20260505192002 45 250 4.0 3.0 0.00 0.02 0.02 91 1015.8
20260505190502 45 251 9.0 13.0 0.00 0.02 0.02 91 1015.7
20260505190003 45 252 7.0 16.0 0.00 0.02 0.02 92 1015.6
20260505185502 45 261 8.0 13.0 0.00 0.02 0.02 92 1015.6
20260505185003 46 235 9.0 10.0 0.00 0.02 0.02 93 1015.7
20260505184503 46 252 7.0 15.0 0.00 0.02 0.02 94 1015.6
20260505184002 45 262 5.0 12.0 0.00 0.02 0.02 93 1015.5
20260505183503 45 292 5.0 8.0 0.00 0.02 0.02 94 1015.6
20260505183003 45 301 5.0 11.0 0.00 0.02 0.02 94 1015.6
20260505182502 45 294 6.0 9.0 0.00 0.02 0.02 93 1015.5
20260505182003 45 298 6.0 13.0 0.00 0.02 0.02 93 1015.5
20260505181502 45 277 5.0 13.0 0.00 0.02 0.02 94 1015.5
20260505181002 45 293 4.0 8.0 0.00 0.02 0.02 94 1015.4
20260505180503 45 308 4.0 5.0 0.00 0.02 0.02 94 1015.4
20260505175003 44 294 4.0 5.0 0.00 0.02 0.02 94 1015.2
20260505174002 44 317 4.0 8.0 0.00 0.02 0.02 94 1015.2
20260505173502 45 280 3.0 9.0 0.01 0.02 0.02 94 1015.1
20260505173003 44 291 2.0 9.0 0.01 0.02 0.02 94 1015.1
20260505172502 45 296 3.0 3.0 0.01 0.02 0.02 94 1015.1
20260505172003 44 281 2.0 4.0 0.01 0.02 0.02 94 1015.0
20260505171502 44 307 4.0 8.0 0.01 0.02 0.02 94 1015.0
20260505171002 44 270 4.0 6.0 0.01 0.02 0.02 94 1015.0
20260505170503 44 256 3.0 13.0 0.01 0.02 0.02 94 1014.9
20260505170002 44 309 3.0 6.0 0.01 0.02 0.02 94 1014.9
20260505165502 44 291 2.0 7.0 0.01 0.02 0.02 94 1014.8
20260505165002 44 294 1.0 4.0 0.01 0.02 0.02 94 1014.8
20260505164502 44 299 1.0 2.0 0.01 0.02 0.02 94 1014.8
20260505163503 44 322 0.0 1.0 0.00 0.01 0.01 94 1014.7
20260505163002 44 0 0.0 0.0 0.00 0.01 0.01 94 1014.6
20260505162002 44 295 1.0 1.0 0.00 0.01 0.01 94 1014.5
20260505161503 44 314 0.0 2.0 0.00 0.01 0.01 94 1014.4
20260505161002 44 0 1.0 0.0 0.00 0.01 0.01 94 1014.2
20260505160503 44 263 1.0 2.0 0.00 0.01 0.01 94 1014.1
20260505152502 43 309 2.0 4.0 0.00 0.01 0.01 94 1014.0
20260505152002 43 313 2.0 5.0 0.00 0.01 0.01 94 1014.0
20260505151502 43 308 1.0 5.0 0.00 0.01 0.01 93 1014.0
20260505151003 43 304 1.0 2.0 0.00 0.01 0.01 93 1014.0
20260505150502 43 295 3.0 5.0 0.00 0.01 0.01 93 1014.0
20260505125003 43 312 1.0 4.0 0.00 0.00 0.00 90 1013.4
20260505124504 44 257 0.0 5.0 0.00 0.00 0.00 90 1013.3
20260505123503 43 329 2.0 1.0 0.00 0.00 0.00 90 1013.3
20260505123003 43 322 2.0 4.0 0.00 0.00 0.00 90 1013.4
20260505122502 43 307 3.0 6.0 0.00 0.00 0.00 89 1013.3
20260505121503 43 315 4.0 5.0 0.00 0.00 0.00 89 1013.1
20260505121003 43 286 5.0 7.0 0.00 0.00 0.00 89 1013.2
20260505120503 43 316 5.0 9.0 0.00 0.00 0.00 89 1013.2
20260505120003 44 316 5.0 9.0 0.00 0.00 0.00 88 1013.1
20260505115502 44 318 6.0 9.0 0.00 0.00 0.00 88 1013.1
20260505115003 44 317 5.0 10.0 0.00 0.00 0.00 88 1013.2
20260505114004 44 285 5.0 11.0 0.00 0.00 0.00 87 1013.1
20260505113503 44 300 5.0 8.0 0.00 0.00 0.00 87 1013.2
20260505113003 44 302 6.0 8.0 0.00 0.00 0.00 87 1013.2
20260505112503 44 313 7.0 8.0 0.00 0.00 0.00 87 1013.2
20260505112002 44 278 8.0 10.0 0.00 0.00 0.00 87 1013.1
20260505111502 44 275 8.0 12.0 0.00 0.00 0.00 87 1013.1
20260505101503 44 286 10.0 17.0 0.00 0.00 0.00 84 1013.2
20260505101003 44 297 10.0 17.0 0.00 0.00 0.00 84 1013.2
20260505100503 44 297 9.0 15.0 0.00 0.00 0.00 83 1013.2
20260505095503 44 291 9.0 11.0 0.00 0.00 0.00 83 1013.3
20260505094503 45 295 9.0 12.0 0.00 0.00 0.00 82 1013.4
20260505094003 45 300 10.0 18.0 0.00 0.00 0.00 82 1013.4
20260505093502 45 291 10.0 14.0 0.00 0.00 0.00 80 1013.4
20260505093004 45 290 10.0 12.0 0.00 0.00 0.00 80 1013.4
20260505092004 45 311 9.0 13.0 0.00 0.00 0.00 80 1013.5
20260505091502 45 312 8.0 14.0 0.00 0.00 0.00 80 1013.6
20260505091003 45 315 6.0 13.0 0.00 0.00 0.00 80 1013.6
20260505090003 45 313 5.0 8.0 0.00 0.00 0.00 80 1013.7
20260505085503 45 306 5.0 8.0 0.00 0.00 0.00 80 1013.8
20260505085002 45 305 6.0 9.0 0.00 0.00 0.00 80 1013.9
20260505084503 45 305 6.0 9.0 0.00 0.00 0.00 80 1014.0
20260505084003 46 306 6.0 12.0 0.00 0.00 0.00 79 1014.0
20260505083503 46 312 6.0 10.0 0.00 0.00 0.00 79 1014.0
20260505083003 46 310 5.0 11.0 0.00 0.00 0.00 78 1014.1
20260505082502 46 297 6.0 7.0 0.00 0.00 0.00 78 1014.1
20260505082003 46 289 7.0 9.0 0.00 0.00 0.00 78 1014.1
20260505081503 46 312 5.0 12.0 0.00 0.00 0.00 78 1014.1
20260505080503 47 294 6.0 5.0 0.00 0.00 0.00 77 1014.3
20260505080003 47 280 5.0 10.0 0.00 0.00 0.00 77 1014.1
20260505075503 47 293 5.0 9.0 0.00 0.00 0.00 76 1014.2
20260505075003 47 297 6.0 9.0 0.00 0.00 0.00 76 1014.2
20260505074502 47 288 7.0 8.0 0.00 0.00 0.00 76 1014.1
20260505074003 47 306 8.0 10.0 0.00 0.00 0.00 76 1014.1
20260505073502 47 308 8.0 10.0 0.00 0.00 0.00 76 1014.2
20260505073003 47 282 6.0 15.0 0.00 0.00 0.00 75 1014.2
20260505072003 47 303 6.0 13.0 0.00 0.00 0.00 75 1014.2
20260505071503 48 295 6.0 9.0 0.00 0.00 0.00 74 1014.2
20260505070004 48 273 7.0 15.0 0.00 0.00 0.00 73 1014.1
20260505065503 48 307 6.0 8.0 0.00 0.00 0.00 73 1014.1
20260505065003 48 283 5.0 11.0 0.00 0.00 0.00 73 1014.2
20260505064003 48 264 9.0 13.0 0.00 0.00 0.00 72 1014.2
20260505063503 48 268 10.0 14.0 0.00 0.00 0.00 72 1014.0
20260505062503 48 270 10.0 17.0 0.00 0.00 0.00 72 1014.0
20260505061503 48 279 8.0 14.0 0.00 0.00 0.00 72 1014.0
20260505061003 48 283 7.0 13.0 0.00 0.00 0.00 72 1014.0
20260505060504 48 290 8.0 8.0 0.00 0.00 0.00 72 1014.1
20260505055503 48 275 7.0 15.0 0.00 0.00 0.00 71 1014.1
20260505055003 48 261 8.0 13.0 0.00 0.00 0.00 71 1014.1
20260505054503 48 276 8.0 10.0 0.00 0.00 0.00 71 1014.2
20260505054003 48 290 5.0 3.0 0.00 0.00 0.00 70 1014.2
20260505053502 48 290 5.0 3.0 0.00 0.00 0.00 70 1014.1
20260505053003 48 282 7.0 7.0 0.00 0.00 0.00 70 1014.1